North Adams, MA

6:21 PM EDT on May 24, 2018 (GMT -0400)
Harriman And West

Weather History for KAQW - November, 2014

Change the Weather History Date:

Wednesday, November 26, 2014

  Actual Average Record
Temperature  
Mean Temperature 34 °F -  
Max Temperature 39 °F 42 °F 63 °F (1999)
Min Temperature 28 °F 27 °F 6 °F (2005)
Degree Days  
Heating Degree Days 32    
Moisture  
Dew Point 29 °F    
Average Humidity 89    
Maximum Humidity 100    
Minimum Humidity 62    
Precipitation  
Precipitation 0.79 in - - ()
Sea Level Pressure  
Sea Level Pressure 29.99 in    
Wind  
Wind Speed 5 mph (West)    
Max Wind Speed 12 mph    
Max Gust Speed -    
Visibility 3 miles    
Events Fog , Snow    
Averages and records for this station are not official NWS values.
T = Trace of Precipitation, MM = Missing Value Source: NWS Daily Summary

Daily Weather History Graph

Daily Weather History Graph

Search for Another Location

Airport or City:

Astronomy

Nov. 26, 2014 Rise Set
Actual Time 6:57 AM EST 4:22 PM EST
Civil Twilight 6:26 AM EST 4:53 PM EST
Nautical Twilight 5:51 AM EST 5:28 PM EST
Astronomical Twilight 5:17 AM EST 6:01 PM EST
Moon 10:26 AM EST (11/26) 8:53 PM EST (11/26)
Length of Visible Light 10h 26m
Length of Day
9h 24m
Waxing Crescent, 21% of the Moon is Illuminated
Nov 26
Waxing Crescent
Nov 29
First Quarter
Dec 6
Full
Dec 14
Last Quarter
Dec 21
New

Hourly Weather History & Observations

Time (EST) Temp. Windchill Dew Point Humidity Pressure Visibility Wind Dir Wind Speed Gust Speed Precip Events Conditions
12:52 AM 39.0 °F 31.8 °F 27.0 °F 62% 30.17 in 10.0 mi West 11.5 mph - N/A   Clear
1:52 AM 37.9 °F 30.9 °F 28.0 °F 68% 30.17 in 10.0 mi West 10.4 mph - N/A   Clear
2:52 AM 37.9 °F 30.5 °F 27.0 °F 65% 30.20 in 10.0 mi West 11.5 mph - N/A   Clear
3:52 AM 37.9 °F 34.4 °F 27.0 °F 65% 30.20 in 10.0 mi WNW 4.6 mph - N/A   Mostly Cloudy
4:52 AM 37.0 °F - 27.0 °F 67% 30.20 in 10.0 mi Calm Calm - N/A   Partly Cloudy
5:52 AM 36.0 °F - 27.0 °F 70% 30.20 in 10.0 mi Calm Calm - N/A   Partly Cloudy
6:52 AM 34.0 °F - 28.0 °F 79% 30.21 in 10.0 mi Calm Calm - N/A   Mostly Cloudy
7:52 AM 35.1 °F - 28.0 °F 76% 30.24 in 10.0 mi Calm Calm - N/A   Overcast
8:52 AM 36.0 °F 33.3 °F 28.0 °F 73% 30.19 in 10.0 mi West 3.5 mph - N/A   Overcast
9:52 AM 36.0 °F - 27.0 °F 70% 30.16 in 10.0 mi Calm Calm - N/A   Overcast
10:18 AM 36.0 °F - 28.0 °F 73% 30.15 in 2.0 mi Calm Calm - 0.00 in Snow Light Snow
10:21 AM 35.1 °F - 28.0 °F 76% 30.15 in 1.2 mi Calm Calm - 0.00 in Snow Light Snow
10:32 AM 33.1 °F - 30.0 °F 89% 30.14 in 0.5 mi Calm Calm - 0.00 in Fog , Snow Snow
10:39 AM 33.1 °F - 30.0 °F 89% 30.14 in 0.5 mi Calm Calm - 0.01 in Fog , Snow Snow
10:52 AM 32.0 °F - 30.9 °F 96% 30.16 in 0.2 mi Calm Calm - 0.03 in Fog , Snow Heavy Snow
11:52 AM 32.0 °F - 32.0 °F 100% 30.13 in 0.2 mi Calm Calm - 0.12 in Fog , Snow Heavy Snow
12:52 PM 32.0 °F - 30.9 °F 96% 30.11 in 0.2 mi Calm Calm - 0.09 in Fog , Snow Snow
1:17 PM 32.0 °F - 30.9 °F 96% 30.08 in 0.5 mi Calm Calm - 0.02 in Fog , Snow Snow
1:38 PM 32.0 °F 28.7 °F 30.9 °F 96% 30.08 in 0.2 mi West 3.5 mph - 0.05 in Fog , Snow Snow
1:52 PM 32.0 °F - 30.9 °F 96% 30.09 in 0.2 mi Calm Calm - 0.07 in Fog , Snow Snow
2:52 PM 32.0 °F - 30.9 °F 96% 30.05 in 0.5 mi Calm Calm - 0.11 in Fog , Snow Snow
3:07 PM 32.0 °F - 30.9 °F 96% 30.01 in 0.2 mi Calm Calm - 0.02 in Fog , Snow Snow
3:23 PM 32.0 °F - 30.9 °F 96% 29.97 in 0.5 mi Calm Calm - 0.04 in Fog , Snow Snow
3:28 PM 32.0 °F - 30.9 °F 96% 29.96 in 0.2 mi Calm Calm - 0.04 in Fog , Snow Snow
3:38 PM 32.0 °F - 30.9 °F 96% 29.97 in 0.2 mi Calm Calm - 0.06 in Fog , Snow Snow
3:47 PM 32.0 °F 28.7 °F 30.2 °F 93% 29.96 in 0.5 mi Variable 3.5 mph - 0.06 in Fog , Snow Snow
3:52 PM 32.0 °F 28.7 °F 30.9 °F 96% 29.98 in 0.5 mi NW 3.5 mph - 0.07 in Fog , Snow Snow
4:03 PM 32.0 °F 28.7 °F 30.9 °F 96% 29.95 in 0.5 mi Variable 3.5 mph - 0.01 in Fog , Snow Snow
4:19 PM 32.0 °F 27.5 °F 30.9 °F 96% 29.96 in 1.2 mi Variable 4.6 mph - 0.01 in Snow Light Snow
4:44 PM 32.0 °F 27.5 °F 30.9 °F 96% 29.96 in 1.0 mi Variable 4.6 mph - 0.03 in Snow Light Snow
4:52 PM 32.0 °F - 30.9 °F 96% 29.97 in 0.8 mi Calm Calm - 0.04 in Snow Light Snow
5:13 PM 32.0 °F 27.5 °F 30.9 °F 96% 29.93 in 0.8 mi NW 4.6 mph - 0.03 in Snow Light Snow
5:52 PM 32.0 °F 27.5 °F 30.9 °F 96% 29.94 in 0.8 mi Variable 4.6 mph - 0.09 in Snow Light Snow
6:02 PM 32.0 °F 27.5 °F 30.9 °F 96% 29.91 in 1.0 mi Variable 4.6 mph - 0.00 in Snow Light Snow
6:19 PM 30.9 °F 26.2 °F 30.9 °F 100% 29.89 in 0.8 mi Variable 4.6 mph - 0.02 in Snow Light Snow
6:40 PM 30.9 °F 26.2 °F 30.9 °F 100% 29.88 in 1.0 mi West 4.6 mph - 0.04 in Snow Light Snow
6:52 PM 30.9 °F 25.2 °F 30.0 °F 96% 29.91 in 0.8 mi West 5.8 mph - 0.05 in Snow Light Snow
7:13 PM 30.9 °F 26.2 °F 30.0 °F 96% 29.87 in 1.0 mi WNW 4.6 mph - 0.02 in Snow Light Snow
7:38 PM 30.9 °F 26.2 °F 30.0 °F 96% 29.88 in 1.2 mi Variable 4.6 mph - 0.04 in Snow Light Snow
7:45 PM 30.9 °F 24.3 °F 30.0 °F 96% 29.87 in 2.0 mi West 6.9 mph - 0.04 in Snow Light Snow
7:52 PM 30.9 °F 24.3 °F 30.0 °F 96% 29.90 in 1.8 mi West 6.9 mph - 0.04 in Snow Light Snow
8:07 PM 30.0 °F 22.4 °F 28.9 °F 96% 29.88 in 1.0 mi West 8.1 mph - 0.01 in Snow Light Snow
8:22 PM 30.0 °F 21.7 °F 28.9 °F 96% 29.87 in 0.8 mi WNW 9.2 mph - 0.01 in Snow Light Snow
8:52 PM 30.0 °F 22.4 °F 28.0 °F 92% 29.89 in 1.0 mi West 8.1 mph - 0.03 in Snow Light Snow
9:03 PM 30.0 °F 23.2 °F 28.0 °F 92% 29.86 in 2.0 mi West 6.9 mph - 0.01 in Snow Light Snow
9:25 PM 28.9 °F 21.9 °F 28.0 °F 96% 29.86 in 3.0 mi Variable 6.9 mph - 0.01 in Snow Light Snow
9:32 PM 30.0 °F 23.2 °F 27.0 °F 88% 29.86 in 3.0 mi WSW 6.9 mph - 0.01 in Snow Light Snow
9:42 PM 28.9 °F 21.1 °F 27.0 °F 92% 29.86 in 2.5 mi WSW 8.1 mph - 0.02 in Snow Light Snow
9:50 PM 28.4 °F 21.2 °F 26.6 °F 93% 29.85 in 2.5 mi West 6.9 mph - 0.02 in Snow Light Snow
9:52 PM 28.9 °F 21.9 °F 27.0 °F 92% 29.87 in 2.0 mi West 6.9 mph - 0.02 in Snow Light Snow
10:03 PM 28.9 °F 21.1 °F 27.0 °F 92% 29.84 in 1.8 mi WSW 8.1 mph - 0.00 in Snow Light Snow
10:08 PM 28.9 °F 22.8 °F 27.0 °F 92% 29.84 in 2.0 mi Variable 5.8 mph - 0.01 in Snow Light Snow
10:27 PM 28.9 °F 22.8 °F 27.0 °F 92% 29.84 in 1.8 mi WSW 5.8 mph - 0.01 in Snow Light Snow
10:52 PM 28.9 °F 21.9 °F 26.1 °F 89% 29.87 in 1.5 mi WSW 6.9 mph - 0.02 in Snow Light Snow
11:01 PM 28.9 °F 21.9 °F 27.0 °F 92% 29.83 in 1.2 mi Variable 6.9 mph - 0.00 in Snow Light Snow
11:40 PM 28.9 °F 20.4 °F 26.1 °F 89% 29.83 in 1.5 mi West 9.2 mph - 0.01 in Snow Light Snow
11:52 PM 28.9 °F 21.9 °F 26.1 °F 89% 29.87 in 1.5 mi WSW 6.9 mph - 0.01 in Snow Light Snow